sat.trackr.live / text

‹ back to catalog

STARLINK-36872

NORAD 67955 · 2026-037Z

PAYLOAD ACTIVE UNKNOWN

§ Identity

Operator
Country
US
Launch date
2026-02-24
Launch site
AFETR
Launch vehicle
Mass (kg)
RCS (m²)

Purposes: comms

External: N2YO · Heavens-Above · Gunter

§ Orbital elements

Epoch: 2026-09-19T04:29:50.610912Z

Period
94.27 min
Inclination
42.9991°
Eccentricity
0.0001734
Mean motion
15.27576536 rev/d
Perigee alt
481.9 km
Apogee alt
484.2 km
Semi-major
6,861.2 km
B*
6.8621e-4
RAAN
177.9395°
Arg perigee
260.7444°
Mean anomaly
99.3211°
Rev number
3,293

§ Raw data

STARLINK-368721 67955U 26037Z   26262.18739133  .00018667  00000+0  68621-3 0  99962 67955  42.9991 177.9395 0001734 260.7444  99.3211 15.27576536 32930

JSON: /api/v1/satellites/67955 · /tle

For live sub-satellite position, see the globe view (requires WebGL).

§ Visibility from observer

Set your observer location to see the next 7 days of passes ≥ 10°. The values pass through the URL so the page stays shareable.

No JS? Fill the form by hand. The geolocation button needs JavaScript.